This is the latest recevied weather packets stored in our database for station/object WA2TQI. If no packets are shown the sender has not sent any weather packets the latest 1 day(s).
| Time | Temp. | Humidity | Pressure | Rain* | Wind** | Luminosity | Snow |
|---|---|---|---|---|---|---|---|
| 1778005658 | 28.89° C | 46% | 1010.8 hPa | 0 mm | 0.89 m/s, 149° | - | - |
| 1778005355 | 27.78° C | 47% | 1010.7 hPa | 0 mm | 1.79 m/s, 205° | - | - |
| 1778005051 | 27.78° C | 48% | 1010.9 hPa | 0 mm | 1.79 m/s, 221° | - | - |
| 1778004749 | 27.78° C | 48% | 1010.8 hPa | 0 mm | 0.89 m/s, 210° | - | - |
| 1778004445 | 27.78° C | 49% | 1011 hPa | 0 mm | 3.13 m/s, 213° | - | - |
| 1778004142 | 28.33° C | 47% | 1011.1 hPa | 0 mm | 4.92 m/s, 180° | - | - |
| 1778003838 | 28.33° C | 48% | 1011.1 hPa | 0 mm | 0.45 m/s, 168° | - | - |
| 1778003535 | 27.78° C | 48% | 1011 hPa | 0 mm | 1.79 m/s, 188° | - | - |
| 1778003231 | 28.33° C | 47% | 1011.3 hPa | 0 mm | 2.68 m/s, 176° | - | - |
| 1778002928 | 28.33° C | 47% | 1011.1 hPa | 0 mm | 0.89 m/s, 147° | - | - |
| 1778002624 | 28.33° C | 48% | 1011.1 hPa | 0 mm | 0.89 m/s, 236° | - | - |
| 1778002321 | 28.33° C | 46% | 1011.2 hPa | 0 mm | 1.79 m/s, 188° | - | - |
| 1778002019 | 27.78° C | 49% | 1011.4 hPa | 0 mm | 0.45 m/s, 252° | - | - |
| 1778001715 | 28.33° C | 48% | 1011.4 hPa | 0 mm | 1.79 m/s, 107° | - | - |
| 1778001415 | 28.33° C | 48% | 1011.6 hPa | 0 mm | 0 m/s | - | - |
| 1778001112 | 28.89° C | 48% | 1011.5 hPa | 0 mm | 0.89 m/s, 257° | - | - |
| 1778000809 | 28.33° C | 49% | 1011.8 hPa | 0 mm | 2.24 m/s, 173° | - | - |
| 1778000506 | 28.33° C | 48% | 1011.6 hPa | 0 mm | 1.34 m/s, 192° | - | - |
| 1778000206 | 27.78° C | 48% | 1011.8 hPa | 0 mm | 0.89 m/s, 260° | - | - |
| 1777999902 | 27.22° C | 49% | 1011.7 hPa | 0 mm | 1.34 m/s, 202° | - | - |
| 1777999598 | 27.22° C | 50% | 1011.6 hPa | 0 mm | 1.34 m/s, 171° | - | - |
| 1777999296 | 27.22° C | 50% | 1011.6 hPa | 0 mm | 0.89 m/s, 179° | - | - |
| 1777998994 | 27.78° C | 50% | 1011.7 hPa | 0 mm | 2.24 m/s, 183° | - | - |
| 1777998691 | 26.67° C | 52% | 1011.9 hPa | 0 mm | 0 m/s | - | - |
| 1777998388 | 27.22° C | 51% | 1011.9 hPa | 0 mm | 1.79 m/s, 158° | - | - |
* Rain latest hour (hover to see other rain measurements)
** Current wind speed in m/s (hover to see current wind gust speed)